Regional Weather Roundup
Issued by NWS

Home | Current Version | Previous Version | Text Only | Print | Product List | Glossary On
Versions: 1 2 3 4 5 6 7 8 9 10 11 12 13 14 15 16 17 18 19 20 21 22 23 24 25 26 27 28 29 30 31 32 33 34 35 36 37 38 39 40 41 42 43 44 45 46 47 48 49 50
000
ASUS45 KCYS 311710
RWRWY

WYOMING REGIONAL WEATHER ROUNDUP
NATIONAL WEATHER SERVICE CHEYENNE WY
1100 AM MDT FRI JUL 31 2015

NOTE:  "FAIR" INDICATES FEW OR NO CLOUDS BELOW 12,000 FEET
WITH NO SIGNIFICANT WEATHER AND/OR OBSTRUCTIONS TO VISIBILITY.

WYZ001-311800-
YELLOWSTONE NATIONAL PARK

CITY           SKY/WX    TMP DP  RH WIND       PRES   REMARKS
LK YELLOWSTONE   N/A     58  46  64 SE5       30.53F
W YELLOWSTONE  NOT AVBL

$$
WYZ002>013-054>058-071-098>099-311800-
NORTHERN WYOMING

CITY           SKY/WX    TMP DP  RH WIND       PRES   REMARKS
JACKSON        SUNNY     64  39  39 CALM      30.44F
CODY           FAIR      82  34  17 SE8       30.30F
GREYBULL       FAIR      81  36  19 CALM      30.23F
WORLAND        FAIR      81  34  18 VRB5      30.25F
SHERIDAN       FAIR      82  40  22 E5        30.24S
BUFFALO        FAIR      84  38  19 VRB3      30.30F
GILLETTE       FAIR      85  43  22 E3        30.26S
HULETT         FAIR      81  45  28 NE9       30.29S
NEWCASTLE      FAIR      82  43  24 S6        30.28S

$$
WYZ014>020-022>026-101>103-311800-
CENTRAL WYOMING

CITY           SKY/WX    TMP DP  RH WIND       PRES   REMARKS
BIG PINEY      FAIR      72  26  18 CALM      30.45F
PINEDALE       FAIR      73  27  17 CALM      30.46F
DUBOIS         FAIR      70  27  19 CALM      30.45F
LANDER         FAIR      77  35  21 NW5       30.34F
RIVERTON       FAIR      79  34  19 N8        30.35F
CASPER         FAIR      79  40  24 CALM      30.33F
DOUGLAS        FAIR      82  39  21 CALM      30.31F

$$
WYZ021-027>030-104>119-311800-
SOUTHERN WYOMING

CITY           SKY/WX    TMP DP  RH WIND       PRES   REMARKS
EVANSTON       FAIR      73  29  19 VRB3      30.45S
KEMMERER       FAIR      73  25  16 SW3       30.46S
FORT BRIDGER   SUNNY     77  27  15 N3        30.46F
ROCK SPRINGS   FAIR      70  28  21 CALM      30.42F
DIXON          FAIR      78  35  21 CALM      30.41F
RAWLINS        FAIR      79  35  20 E10       30.42F
SARATOGA       FAIR      77  41  27 CALM      30.44F
LARAMIE        FAIR      76  49  38 SE9       30.45F
CHEYENNE       PTSUNNY   80  52  37 S15       30.39S
TORRINGTON     FAIR      80  58  46 S6        30.27S
PINE BLUFFS    FAIR      82  52  34 SE12      30.34R

$$


USA.gov is the U.S. government's official web portal to all federal, state and local government web resources and services.